 day,  time,  air_temp(C),  RH(%),  ground_temp10cm(C),  ground_temp20cm(C),  ground_temp40cm(C),  precipitation(mm/h),  Solar_Radiation(MJ/m2h),  lack, 
 04/07/01, 01:00,  13.5,  99,  20.3,  20.2,  18.5,   0.0,  0.00, 
 04/07/01, 02:00,  13.7,  99,  20.0,  20.1,  18.4,   0.0,  0.00, 
 04/07/01, 03:00,  13.6,  99,  19.8,  20.0,  18.4,   0.0,  0.00, 
 04/07/01, 04:00,  13.0,  99,  19.6,  20.0,  18.4,   0.0,  0.00, 
 04/07/01, 05:00,  12.8,  99,  19.4,  19.9,  18.5,   0.0,  0.00, 
 04/07/01, 06:00,  13.6,  99,  19.1,  19.8,  18.4,   0.0,  0.17, 
 04/07/01, 07:00,  14.4,  99,  19.0,  19.7,  18.4,   0.0,  0.79, 
 04/07/01, 08:00,  16.1,  99,  19.0,  19.6,  18.4,   0.0,  1.65, 
 04/07/01, 09:00,  17.0,  98,  19.4,  19.5,  18.5,   0.0,  2.57, 
 04/07/01, 10:00,  18.7,  95,  19.9,  19.4,  18.5,   0.0,  3.00, 
 04/07/01, 11:00,  20.7,  88,  20.7,  19.4,  18.5,   0.0,  3.40, 
 04/07/01, 12:00,  22.0,  80,  21.6,  19.5,  18.5,   0.5,  3.60, 
 04/07/01, 13:00,  22.8,  75,  22.8,  19.6,  18.4,   0.0,  3.60, 
 04/07/01, 14:00,  23.4,  79,  23.3,  19.8,  18.5,   0.0,  3.32, 
 04/07/01, 15:00,  23.6,  71,  23.4,  20.0,  18.5,   0.0,  2.93, 
 04/07/01, 16:00,  23.9,  70,  23.4,  20.2,  18.5,   0.0,  2.34, 
 04/07/01, 17:00,  22.7,  75,  23.6,  20.4,  18.4,   0.0,  1.70, 
 04/07/01, 18:00,  20.9,  79,  23.6,  20.6,  18.5,   0.0,  0.94, 
 04/07/01, 19:00,  18.6,  89,  23.4,  20.8,  18.4,   0.0,  0.23, 
 04/07/01, 20:00,  18.9,  84,  23.1,  20.9,  18.4,   0.0,  0.00, 
 04/07/01, 21:00,  18.2,  84,  22.8,  21.0,  18.6,   0.0,  0.00, 
 04/07/01, 22:00,  16.9,  95,  22.5,  21.0,  18.4,   0.0,  0.00, 
 04/07/01, 23:00,  16.9,  96,  22.1,  21.0,  18.6,   0.0,  0.00, 
 04/07/02, 00:00,  16.8,  95,  21.8,  21.0,  18.4,   0.0,  0.00, 
 04/07/02, 01:00,  15.0,  99,  21.5,  20.8,  18.5,   0.0,  0.00, 
 04/07/02, 02:00,  15.7,  99,  21.2,  20.9,  18.6,   0.0,  0.00, 
 04/07/02, 03:00,  16.2,  99,  20.8,  20.8,  18.5,   0.0,  0.00, 
 04/07/02, 04:00,  15.2,  99,  20.7,  20.7,  18.5,   0.0,  0.00, 
 04/07/02, 05:00,  16.0,  99,  20.5,  20.6,  18.5,   0.0,  0.00, 
 04/07/02, 06:00,  15.7,  99,  20.3,  20.5,  18.7,   0.0,  0.20, 
 04/07/02, 07:00,  16.7,  99,  20.2,  20.4,  18.7,   0.0,  0.53, 
 04/07/02, 08:00,  18.4,  94,  20.2,  20.3,  18.7,   0.0,  1.45, 
 04/07/02, 09:00,  18.5,  88,  20.5,  20.2,  18.7,   0.0,  2.20, 
 04/07/02, 10:00,  21.0,  82,  20.9,  20.2,  18.7,   0.0,  2.66, 
 04/07/02, 11:00,  21.9,  67,  21.5,  20.2,  18.7,   0.0,  3.08, 
 04/07/02, 12:00,  23.1,  59,  22.4,  20.2,  18.6,   0.0,  3.54, 
 04/07/02, 13:00,  24.1,  54,  23.4,  20.3,  18.8,   0.0,  3.55, 
 04/07/02, 14:00,  24.8,  50,  23.9,  20.5,  18.6,   0.0,  3.31, 
 04/07/02, 15:00,  24.1,  56,  23.8,  20.7,  18.7,   0.0,  2.82, 
 04/07/02, 16:00,  23.1,  63,  23.7,  20.9,  18.8,   0.0,  1.99, 
 04/07/02, 17:00,  22.2,  69,  23.8,  21.0,  18.7,   0.0,  1.30, 
 04/07/02, 18:00,  20.5,  75,  23.8,  21.2,  18.7,   0.0,  0.67, 
 04/07/02, 19:00,  19.0,  81,  23.6,  21.3,  18.8,   0.0,  0.07, 
 04/07/02, 20:00,  19.2,  65,  23.3,  21.4,  18.8,   0.0,  0.00, 
 04/07/02, 21:00,  18.9,  64,  22.9,  21.4,  18.8,   0.0,  0.00, 
 04/07/02, 22:00,  16.5,  80,  22.5,  21.4,  18.8,   0.0,  0.00, 
 04/07/02, 23:00,  17.6,  65,  22.1,  21.4,  18.8,   0.0,  0.00, 
 04/07/03, 00:00,  17.7,  66,  21.8,  21.3,  18.8,   0.0,  0.00, 
 04/07/03, 01:00,  18.5,  58,  21.5,  21.3,  18.9,   0.0,  0.00, 
 04/07/03, 02:00,  17.1,  68,  21.2,  21.2,  18.9,   0.0,  0.00, 
 04/07/03, 03:00,  16.3,  73,  21.0,  21.1,  18.9,   0.0,  0.00, 
 04/07/03, 04:00,  17.5,  69,  20.8,  21.0,  18.8,   0.0,  0.00, 
 04/07/03, 05:00,  17.9,  75,  20.5,  20.9,  19.0,   0.0,  0.00, 
 04/07/03, 06:00,  17.7,  81,  20.4,  20.8,  19.0,   0.0,  0.16, 
 04/07/03, 07:00,  18.4,  84,  20.3,  20.7,  19.0,   0.0,  0.69, 
 04/07/03, 08:00,  19.0,  82,  20.3,  20.6,  19.1,   0.0,  0.83, 
 04/07/03, 09:00,  19.2,  89,  20.5,  20.5,  19.0,   0.0,  1.20, 
 04/07/03, 10:00,  20.1,  73,  20.7,  20.4,  19.0,   0.0,  1.35, 
 04/07/03, 11:00,  21.7,  69,  21.0,  20.4,  18.9,   0.0,  2.46, 
 04/07/03, 12:00,  23.7,  66,  21.7,  20.4,  19.0,   0.0,  3.66, 
 04/07/03, 13:00,  24.0,  65,  22.8,  20.4,  18.9,   0.0,  3.62, 
 04/07/03, 14:00,  24.3,  65,  23.4,  20.5,  19.0,   0.0,  2.94, 
 04/07/03, 15:00,  23.8,  62,  23.4,  20.7,  19.1,   0.0,  2.64, 
 04/07/03, 16:00,  23.9,  58,  23.4,  20.8,  19.1,   0.0,  2.29, 
 04/07/03, 17:00,  22.5,  67,  23.6,  21.0,  19.1,   0.0,  1.73, 
 04/07/03, 18:00,  21.5,  71,  23.7,  21.1,  19.1,   0.0,  0.97, 
 04/07/03, 19:00,  19.0,  76,  23.4,  21.2,  19.1,   0.0,  0.29, 
 04/07/03, 20:00,  16.7,  88,  23.1,  21.3,  19.1,   0.0,  0.00, 
 04/07/03, 21:00,  16.2,  86,  22.6,  21.4,  19.1,   0.0,  0.00, 
 04/07/03, 22:00,  15.6,  98,  22.2,  21.4,  19.1,   0.0,  0.00, 
 04/07/03, 23:00,  16.1,  94,  21.8,  21.4,  19.0,   0.0,  0.00, 
 04/07/04, 00:00,  18.1,  96,  21.5,  21.3,  19.0,   0.0,  0.00, 
 04/07/04, 01:00,  18.1,  96,  21.2,  21.2,  19.1,   0.0,  0.00, 
 04/07/04, 02:00,  17.9,  99,  21.1,  21.1,  19.1,   0.0,  0.00, 
 04/07/04, 03:00,  17.8,  99,  20.9,  21.0,  19.2,   0.0,  0.00, 
 04/07/04, 04:00,  16.2,  99,  20.8,  20.9,  19.1,   0.0,  0.00, 
 04/07/04, 05:00,  15.5,  99,  20.6,  20.8,  19.1,   0.0,  0.00, 
 04/07/04, 06:00,  16.1,  99,  20.4,  20.7,  19.1,   0.0,  0.12, 
 04/07/04, 07:00,  18.2,  99,  20.2,  20.7,  19.1,   0.0,  0.67, 
 04/07/04, 08:00,  18.2,  99,  20.3,  20.6,  19.2,   0.0,  1.34, 
 04/07/04, 09:00,  20.6,  93,  20.6,  20.5,  19.2,   0.0,  2.08, 
 04/07/04, 10:00,  22.5,  85,  21.0,  20.4,  19.1,   0.0,  2.70, 
 04/07/04, 11:00,  23.5,  77,  21.8,  20.4,  19.2,   0.0,  3.32, 
 04/07/04, 12:00,  25.3,  70,  22.8,  20.5,  19.2,   0.0,  3.54, 
 04/07/04, 13:00,  26.5,  72,  24.0,  20.6,  19.3,   0.0,  3.47, 
 04/07/04, 14:00,  24.1,  80,  24.5,  20.8,  19.1,   0.0,  2.13, 
 04/07/04, 15:00,  24.1,  82,  24.7,  21.0,  19.2,   0.0,  1.27, 
 04/07/04, 16:00,  22.9,  88,  24.7,  21.3,  19.2,   0.0,  1.20, 
 04/07/04, 17:00,  22.1,  85,  24.6,  21.5,  19.2,   0.0,  0.83, 
 04/07/04, 18:00,  20.9,  90,  24.5,  21.7,  19.1,   0.0,  0.58, 
 04/07/04, 19:00,  19.9,  95,  24.2,  21.8,  19.2,   0.0,  0.12, 
 04/07/04, 20:00,  19.0,  98,  23.9,  21.9,  19.3,   0.0,  0.00, 
 04/07/04, 21:00,  18.7,  97,  23.5,  21.9,  19.3,   0.0,  0.00, 
 04/07/04, 22:00,  18.1,  97,  23.2,  21.9,  19.3,   0.0,  0.00, 
 04/07/04, 23:00,  19.5,  80,  22.9,  21.9,  19.2,   0.0,  0.00, 
 04/07/05, 00:00,  19.5,  77,  22.6,  21.9,  19.4,   0.0,  0.00, 
 04/07/05, 01:00,  17.8,  88,  22.3,  21.8,  19.4,   0.0,  0.00, 
 04/07/05, 02:00,  18.9,  87,  22.0,  21.7,  19.4,   0.0,  0.00, 
 04/07/05, 03:00,  19.0,  89,  21.8,  21.7,  19.4,   0.0,  0.00, 
 04/07/05, 04:00,  19.8,  87,  21.6,  21.6,  19.5,   0.0,  0.00, 
 04/07/05, 05:00,  18.3,  99,  21.5,  21.5,  19.5,   0.0,  0.00, 
 04/07/05, 06:00,  18.4,  99,  21.4,  21.4,  19.5,   0.0,  0.00, 
 04/07/05, 07:00,  19.8,  99,  21.3,  21.3,  19.5,   0.0,  0.54, 
 04/07/05, 08:00,  20.4,  99,  21.4,  21.2,  19.5,   0.0,  1.44, 
 04/07/05, 09:00,  22.2,  92,  21.6,  21.2,  19.5,   0.0,  1.83, 
 04/07/05, 10:00,  23.2,  82,  22.1,  21.1,  19.5,   0.0,  2.45, 
 04/07/05, 11:00,  23.9,  73,  22.6,  21.1,  19.5,   0.0,  3.27, 
 04/07/05, 12:00,  24.9,  68,  23.4,  21.1,  19.4,   0.0,  3.09, 
 04/07/05, 13:00,  24.5,  71,  24.0,  21.3,  19.5,   0.0,  2.45, 
 04/07/05, 14:00,  23.2,  74,  24.3,  21.4,  19.5,   0.0,  1.47, 
 04/07/05, 15:00,  21.8,  83,  24.3,  21.6,  19.5,   0.0,  0.68, 
 04/07/05, 16:00,  21.4,  82,  24.2,  21.7,  19.5,   0.0,  0.43, 
 04/07/05, 17:00,  19.5,  99,  24.0,  21.9,  19.5,   0.0,  0.28, 
 04/07/05, 18:00,  19.1,  99,  23.8,  22.0,  19.5,   0.5,  0.20, 
 04/07/05, 19:00,  18.6,  99,  23.5,  22.0,  19.6,   1.0,  0.05, 
 04/07/05, 20:00,  18.6,  99,  23.2,  22.0,  19.6,   2.0,  0.00, 
 04/07/05, 21:00,  18.9,  99,  22.9,  22.0,  19.6,   1.0,  0.00, 
 04/07/05, 22:00,  18.7,  99,  22.7,  22.0,  19.6,   0.5,  0.00, 
 04/07/05, 23:00,  18.5,  99,  22.5,  21.9,  19.6,   0.0,  0.00, 
 04/07/06, 00:00,  18.3,  99,  22.3,  21.9,  19.6,   0.0,  0.00, 
 04/07/06, 01:00,  18.1,  99,  22.1,  21.8,  19.6,   0.0,  0.00, 
 04/07/06, 02:00,  17.6,  99,  21.8,  21.7,  19.6,   0.0,  0.00, 
 04/07/06, 03:00,  17.5,  99,  21.7,  21.7,  19.7,   0.0,  0.00, 
 04/07/06, 04:00,  16.6,  99,  21.5,  21.6,  19.7,   0.0,  0.00, 
 04/07/06, 05:00,  16.3,  99,  21.3,  21.5,  19.7,   0.0,  0.00, 
 04/07/06, 06:00,  17.2,  99,  21.0,  21.4,  19.7,   0.0,  0.17, 
 04/07/06, 07:00,  19.6,  99,  20.8,  21.3,  19.7,   0.0,  0.97, 
 04/07/06, 08:00,  19.8,  94,  20.9,  21.2,  19.7,   0.0,  1.17, 
 04/07/06, 09:00,  21.0,  84,  21.2,  21.1,  19.6,   0.0,  2.40, 
 04/07/06, 10:00,  22.9,  80,  21.8,  21.0,  19.7,   0.0,  2.92, 
 04/07/06, 11:00,  24.6,  76,  22.6,  21.0,  19.7,   0.5,  3.32, 
 04/07/06, 12:00,  26.4,  78,  23.6,  21.1,  19.7,   0.0,  3.56, 
 04/07/06, 13:00,  26.1,  63,  24.7,  21.2,  19.7,   0.0,  3.48, 
 04/07/06, 14:00,  25.8,  56,  25.0,  21.4,  19.6,   0.0,  3.28, 
 04/07/06, 15:00,  26.1,  56,  25.0,  21.7,  19.7,   0.0,  2.88, 
 04/07/06, 16:00,  25.7,  58,  25.0,  21.9,  19.6,   0.5,  2.31, 
 04/07/06, 17:00,  25.0,  61,  25.1,  22.1,  19.8,   0.0,  1.63, 
 04/07/06, 18:00,  23.3,  81,  25.0,  22.2,  19.7,   0.0,  0.90, 
 04/07/06, 19:00,  21.6,  88,  24.9,  22.3,  19.8,   0.0,  0.26, 
 04/07/06, 20:00,  20.8,  88,  24.6,  22.4,  19.7,   0.0,  0.00, 
 04/07/06, 21:00,  19.8,  91,  24.2,  22.5,  19.8,   0.5,  0.00, 
 04/07/06, 22:00,  19.7,  91,  23.8,  22.5,  19.8,   0.0,  0.00, 
 04/07/06, 23:00,  18.3,  98,  23.5,  22.5,  19.8,   0.0,  0.00, 
 04/07/07, 00:00,  17.0,  99,  23.2,  22.5,  19.8,   0.0,  0.00, 
 04/07/07, 01:00,  17.1,  99,  22.8,  22.4,  19.9,   0.0,  0.00, 
 04/07/07, 02:00,  16.5,  99,  22.5,  22.3,  19.9,   0.0,  0.00, 
 04/07/07, 03:00,  16.7,  99,  22.2,  22.2,  19.9,   0.0,  0.00, 
 04/07/07, 04:00,  16.5,  99,  21.9,  22.1,  19.9,   0.0,  0.00, 
 04/07/07, 05:00,  15.8,  99,  21.7,  22.0,  19.9,   0.0,  0.00, 
 04/07/07, 06:00,  16.2,  96,  21.4,  21.9,  20.0,   0.0,  0.16, 
 04/07/07, 07:00,  18.4,  83,  21.2,  21.8,  20.0,   0.0,  0.63, 
 04/07/07, 08:00,  22.1,  69,  21.3,  21.7,  20.0,   0.0,  1.55, 
 04/07/07, 09:00,  23.4,  71,  21.6,  21.5,  20.0,   0.0,  2.29, 
 04/07/07, 10:00,  24.7,  70,  22.2,  21.5,  20.0,   0.0,  2.83, 
 04/07/07, 11:00,  25.1,  72,  22.9,  21.5,  20.0,   0.0,  3.25, 
 04/07/07, 12:00,  25.7,  70,  24.0,  21.5,  20.0,   0.0,  2.79, 
 04/07/07, 13:00,  26.1,  70,  24.7,  21.6,  20.0,   0.0,  2.60, 
 04/07/07, 14:00,  25.1,  75,  25.1,  21.8,  20.0,   0.0,  1.27, 
 04/07/07, 15:00,  24.9,  77,  25.2,  22.0,  20.0,   0.0,  1.42, 
 04/07/07, 16:00,  23.7,  85,  25.2,  22.2,  20.0,   0.0,  0.76, 
 04/07/07, 17:00,  23.9,  86,  25.1,  22.4,  20.0,   0.0,  0.97, 
 04/07/07, 18:00,  23.3,  91,  25.0,  22.5,  20.0,   0.0,  0.64, 
 04/07/07, 19:00,  21.5,  99,  24.8,  22.6,  20.0,   0.0,  0.23, 
 04/07/07, 20:00,  20.3,  99,  24.6,  22.7,  20.0,   0.0,  0.00, 
 04/07/07, 21:00,  20.8,  99,  24.3,  22.7,  20.0,   0.0,  0.00, 
 04/07/07, 22:00,  20.3,  99,  24.0,  22.7,  20.0,   0.0,  0.00, 
 04/07/07, 23:00,  19.6,  99,  23.8,  22.7,  20.1,   0.0,  0.00, 
 04/07/08, 00:00,  19.0,  99,  23.5,  22.7,  20.1,   0.0,  0.00, 
 04/07/08, 01:00,  18.8,  99,  23.3,  22.6,  20.1,   0.0,  0.00, 
 04/07/08, 02:00,  18.7,  99,  23.1,  22.6,  20.1,   0.5,  0.00, 
 04/07/08, 03:00,  18.6,  99,  22.9,  22.5,  20.2,   0.0,  0.00, 
 04/07/08, 04:00,  18.5,  99,  22.6,  22.4,  20.2,   0.0,  0.00, 
 04/07/08, 05:00,  18.7,  99,  22.4,  22.3,  20.2,   0.0,  0.00, 
 04/07/08, 06:00,  19.9,  96,  22.2,  22.3,  20.2,   0.0,  0.19, 
 04/07/08, 07:00,  21.7,  90,  22.0,  22.1,  20.2,   0.0,  0.76, 
 04/07/08, 08:00,  23.2,  86,  22.3,  22.1,  20.2,   0.0,  1.67, 
 04/07/08, 09:00,  22.1,  94,  22.7,  22.0,  20.2,   0.0,  1.40, 
 04/07/08, 10:00,  24.5,  84,  23.0,  22.0,  20.2,   0.0,  2.19, 
 04/07/08, 11:00,  22.5,  88,  23.5,  22.0,  20.2,   0.0,  1.67, 
 04/07/08, 12:00,  23.9,  81,  23.8,  22.0,  20.2,   0.0,  1.99, 
 04/07/08, 13:00,  24.4,  83,  24.3,  22.1,  20.2,   0.0,  2.24, 
 04/07/08, 14:00,  23.9,  81,  24.6,  22.2,  20.2,   0.0,  1.59, 
 04/07/08, 15:00,  25.4,  77,  24.7,  22.3,  20.2,   0.0,  2.12, 
 04/07/08, 16:00,  26.6,  76,  24.7,  22.4,  20.2,   0.0,  1.87, 
 04/07/08, 17:00,  24.9,  82,  24.9,  22.5,  20.2,   0.0,  1.25, 
 04/07/08, 18:00,  23.3,  89,  24.9,  22.6,  20.1,   0.0,  0.93, 
 04/07/08, 19:00,  21.9,  96,  24.8,  22.7,  20.3,   0.0,  0.14, 
 04/07/08, 20:00,  21.0,  99,  24.5,  22.7,  20.2,   0.0,  0.00, 
 04/07/08, 21:00,  20.1,  99,  24.2,  22.8,  20.2,   0.0,  0.00, 
 04/07/08, 22:00,  20.1,  99,  23.9,  22.8,  20.3,   0.0,  0.00, 
 04/07/08, 23:00,  19.2,  99,  23.7,  22.8,  20.3,   0.0,  0.00, 
 04/07/09, 00:00,  18.7,  99,  23.4,  22.7,  20.3,   0.0,  0.00, 
 04/07/09, 01:00,  17.8,  99,  23.1,  22.7,  20.2,   0.0,  0.00, 
 04/07/09, 02:00,  18.2,  99,  22.8,  22.6,  20.4,   0.0,  0.00, 
 04/07/09, 03:00,  19.0,  99,  22.6,  22.5,  20.3,   0.0,  0.00, 
 04/07/09, 04:00,  18.9,  99,  22.4,  22.4,  20.3,   0.0,  0.00, 
 04/07/09, 05:00,  17.8,  99,  22.2,  22.3,  20.3,   0.0,  0.00, 
 04/07/09, 06:00,  19.6,  99,  22.0,  22.3,  20.3,   0.0,  0.20, 
 04/07/09, 07:00,  20.9,  99,  21.9,  22.2,  20.3,   0.0,  0.64, 
 04/07/09, 08:00,  22.3,  92,  22.1,  22.0,  20.4,   0.0,  1.47, 
 04/07/09, 09:00,  22.3,  89,  22.4,  22.0,  20.4,   0.0,  1.11, 
 04/07/09, 10:00,  24.2,  81,  22.7,  21.9,  20.4,   0.0,  2.20, 
 04/07/09, 11:00,  24.7,  79,  23.3,  21.9,  20.4,   0.0,  3.01, 
 04/07/09, 12:00,  26.1,  68,  24.2,  22.0,  20.4,   0.0,  3.37, 
 04/07/09, 13:00,  27.7,  66,  25.2,  22.1,  20.5,   0.0,  3.50, 
 04/07/09, 14:00,  28.3,  61,  25.8,  22.2,  20.5,   0.0,  3.26, 
 04/07/09, 15:00,  28.1,  64,  25.8,  22.4,  20.4,   0.0,  2.71, 
 04/07/09, 16:00,  27.3,  64,  25.8,  22.6,  20.4,   0.0,  2.28, 
 04/07/09, 17:00,  25.1,  74,  25.9,  22.8,  20.5,   0.5,  1.20, 
 04/07/09, 18:00,  23.5,  83,  25.8,  23.0,  20.4,   0.0,  0.84, 
 04/07/09, 19:00,  21.8,  87,  25.6,  23.1,  20.4,   0.0,  0.17, 
 04/07/09, 20:00,  20.9,  91,  25.2,  23.2,  20.4,   0.0,  0.00, 
 04/07/09, 21:00,  20.4,  99,  24.9,  23.2,  20.4,   0.0,  0.00, 
 04/07/09, 22:00,  19.1,  99,  24.5,  23.2,  20.5,   0.0,  0.00, 
 04/07/09, 23:00,  18.5,  97,  24.3,  23.2,  20.5,   0.0,  0.00, 
 04/07/10, 00:00,  18.2,  99,  23.9,  23.2,  20.5,   0.0,  0.00, 
 04/07/10, 01:00,  18.0,  99,  23.7,  23.1,  20.5,   0.0,  0.00, 
 04/07/10, 02:00,  18.5,  99,  23.4,  23.1,  20.6,   0.0,  0.00, 
 04/07/10, 03:00,  18.1,  99,  23.2,  23.0,  20.5,   0.0,  0.00, 
 04/07/10, 04:00,  18.2,  99,  23.0,  22.9,  20.5,   0.0,  0.00, 
 04/07/10, 05:00,  18.1,  99,  22.8,  22.8,  20.6,   0.0,  0.00, 
 04/07/10, 06:00,  18.6,  99,  22.6,  22.7,  20.6,   0.0,  0.18, 
 04/07/10, 07:00,  20.5,  95,  22.5,  22.6,  20.6,   0.0,  0.76, 
 04/07/10, 08:00,  20.1,  98,  22.6,  22.5,  20.7,   0.0,  1.09, 
 04/07/10, 09:00,  22.0,  89,  22.8,  22.4,  20.7,   0.0,  1.70, 
 04/07/10, 10:00,  20.1,  99,  23.0,  22.4,  20.7,   0.0,  1.17, 
 04/07/10, 11:00,  19.0,  99,  23.2,  22.3,  20.7,   0.0,  0.40, 
 04/07/10, 12:00,  17.9,  99,  23.2,  22.3,  20.7,   1.0,  0.25, 
 04/07/10, 13:00,  17.5,  99,  23.0,  22.3,  20.7,   4.5,  0.52, 
 04/07/10, 14:00,  17.7,  99,  22.8,  22.3,  20.7,   2.0,  0.86, 
 04/07/10, 15:00,  17.8,  99,  22.8,  22.3,  20.6,   0.0,  0.75, 
 04/07/10, 16:00,  19.2,  99,  22.8,  22.3,  20.7,   0.5,  1.45, 
 04/07/10, 17:00,  17.9,  99,  22.9,  22.3,  20.8,   0.0,  0.50, 
 04/07/10, 18:00,  17.9,  99,  22.9,  22.2,  20.8,   0.0,  0.35, 
 04/07/10, 19:00,  17.3,  99,  22.8,  22.2,  20.7,   0.0,  0.04, 
 04/07/10, 20:00,  16.1,  99,  22.4,  22.2,  20.7,   7.5,  0.00, 
 04/07/10, 21:00,  16.2,  99,  22.1,  22.2,  20.7,   1.0,  0.00, 
 04/07/10, 22:00,  15.9,  99,  21.8,  22.1,  20.7,   0.0,  0.00, 
 04/07/10, 23:00,  15.6,  99,  21.6,  22.0,  20.6,   0.0,  0.00, 
 04/07/11, 00:00,  15.8,  99,  21.5,  21.9,  20.5,   0.0,  0.00, 
 04/07/11, 01:00,  16.0,  99,  21.3,  21.8,  20.7,   0.0,  0.00, 
 04/07/11, 02:00,  15.8,  99,  21.2,  21.8,  20.7,   0.5,  0.00, 
 04/07/11, 03:00,  15.5,  99,  21.0,  21.7,  20.7,   0.0,  0.00, 
 04/07/11, 04:00,  15.5,  99,  20.9,  21.6,  20.7,   0.0,  0.00, 
 04/07/11, 05:00,  15.4,  99,  20.8,  21.5,  20.7,   0.0,  0.00, 
 04/07/11, 06:00,  13.7,  99,  20.6,  21.4,  20.7,   3.5,  0.00, 
 04/07/11, 07:00,  14.5,  95,  20.4,  21.3,  20.6,   0.5,  0.19, 
 04/07/11, 08:00,  13.7,  99,  20.2,  21.2,  20.6,   2.0,  0.27, 
 04/07/11, 09:00,  15.3,  99,  20.1,  21.1,  20.5,   0.0,  1.26, 
 04/07/11, 10:00,  16.6,  99,  20.3,  21.0,  20.4,   0.0,  2.51, 
 04/07/11, 11:00,  17.2,  92,  20.9,  20.9,  20.5,   0.0,  2.25, 
 04/07/11, 12:00,  18.4,  92,  21.5,  20.9,  20.5,   0.0,  2.04, 
 04/07/11, 13:00,  19.7,  78,  21.9,  20.9,  20.5,   0.5,  2.49, 
 04/07/11, 14:00,  19.9,  75,  22.3,  21.0,  20.4,   0.0,  2.92, 
 04/07/11, 15:00,  20.7,  75,  22.5,  21.1,  20.3,   0.0,  2.96, 
 04/07/11, 16:00,  19.7,  79,  22.6,  21.2,  20.4,   0.0,  1.77, 
 04/07/11, 17:00,  17.1,  81,  22.7,  21.3,  20.4,   0.0,  1.04, 
 04/07/11, 18:00,  16.3,  88,  22.7,  21.4,  20.4,   0.0,  0.57, 
 04/07/11, 19:00,  15.7,  89,  22.5,  21.4,  20.3,   0.0,  0.32, 
 04/07/11, 20:00,  14.6,  94,  22.2,  21.5,  20.4,   0.0,  0.00, 
 04/07/11, 21:00,  14.6,  88,  21.9,  21.5,  20.4,   0.0,  0.00, 
 04/07/11, 22:00,  13.5,  97,  21.5,  21.5,  20.4,   0.0,  0.00, 
 04/07/11, 23:00,  14.2,  91,  21.2,  21.5,  20.4,   0.0,  0.00, 
 04/07/12, 00:00,  12.2,  99,  20.9,  21.4,  20.3,   0.0,  0.00, 
 04/07/12, 01:00,  13.7,  80,  20.6,  21.3,  20.3,   0.0,  0.00, 
 04/07/12, 02:00,  11.2,  99,  20.3,  21.2,  20.3,   0.0,  0.00, 
 04/07/12, 03:00,  13.5,  83,  20.0,  21.1,  20.3,   0.0,  0.00, 
 04/07/12, 04:00,  11.1,  99,  19.8,  21.0,  20.2,   0.0,  0.00, 
 04/07/12, 05:00,  10.9,  99,  19.5,  20.8,  20.3,   0.0,  0.00, 
 04/07/12, 06:00,  12.7,  93,  19.3,  20.7,  20.3,   0.0,  0.14, 
 04/07/12, 07:00,  14.6,  86,  19.0,  20.6,  20.2,   0.0,  0.92, 
 04/07/12, 08:00,  15.9,  88,  19.1,  20.5,  20.3,   0.0,  1.32, 
 04/07/12, 09:00,  16.6,  93,  19.4,  20.3,  20.2,   0.0,  1.31, 
 04/07/12, 10:00,  18.1,  81,  19.7,  20.3,  20.2,   0.0,  1.51, 
 04/07/12, 11:00,  19.2,  84,  20.0,  20.2,  20.3,   0.0,  1.88, 
 04/07/12, 12:00,  17.7,  83,  20.4,  20.2,  20.3,   0.0,  1.19, 
 04/07/12, 13:00,  17.8,  93,  20.6,  20.2,  20.2,   0.0,  0.94, 
 04/07/12, 14:00,  16.5,  95,  20.7,  20.2,  20.2,   0.0,  0.76, 
 04/07/12, 15:00,  15.0,  98,  20.8,  20.3,  20.1,   0.0,  0.44, 
 04/07/12, 16:00,  14.8,  99,  20.8,  20.3,  20.1,   0.0,  0.41, 
 04/07/12, 17:00,  15.7,  98,  20.7,  20.4,  19.9,   0.5,  0.43, 
 04/07/12, 18:00,  15.4,  99,  20.7,  20.4,  20.0,   0.0,  0.12, 
 04/07/12, 19:00,  14.7,  99,  20.5,  20.4,  20.1,   1.5,  0.01, 
 04/07/12, 20:00,  14.7,  99,  20.2,  20.4,  20.0,   1.0,  0.00, 
 04/07/12, 21:00,  15.2,  99,  20.0,  20.4,  20.0,   0.0,  0.00, 
 04/07/12, 22:00,  15.9,  96,  20.0,  20.3,  19.8,   0.0,  0.00, 
 04/07/12, 23:00,  16.1,  98,  19.8,  20.3,  19.8,   0.0,  0.00, 
 04/07/13, 00:00,  16.0,  99,  19.7,  20.3,  19.8,   0.0,  0.00, 
 04/07/13, 01:00,  15.9,  99,  19.6,  20.2,  19.8,   0.0,  0.00, 
 04/07/13, 02:00,  15.9,  99,  19.5,  20.0,  19.9,   0.0,  0.00, 
 04/07/13, 03:00,  15.5,  99,  19.4,  20.0,  19.8,   1.0,  0.00, 
 04/07/13, 04:00,  15.7,  99,  19.2,  20.0,  19.7,   0.0,  0.00, 
 04/07/13, 05:00,  15.9,  99,  19.3,  20.0,  19.7,   0.0,  0.00, 
 04/07/13, 06:00,  16.2,  99,  19.1,  19.9,  19.7,   0.0,  0.00, 
 04/07/13, 07:00,  16.5,  99,  19.1,  19.8,  19.8,   0.0,  0.00, 
 04/07/13, 08:00,  16.9,  99,  19.0,  19.8,  19.7,   0.0,  0.17, 
 04/07/13, 09:00,  17.5,  99,  19.1,  19.7,  19.8,   0.0,  0.33, 
 04/07/13, 10:00,  18.2,  99,  19.1,  19.7,  19.7,   0.0,  0.34, 
 04/07/13, 11:00,  19.0,  99,  19.3,  19.7,  19.8,   0.0,  0.49, 
 04/07/13, 12:00,  19.9,  99,  19.4,  19.6,  19.8,   0.0,  0.74, 
 04/07/13, 13:00,  20.3,  94,  19.7,  19.6,  19.8,   0.0,  1.14, 
 04/07/13, 14:00,  20.8,  94,  20.0,  19.6,  19.6,   0.0,  1.31, 
 04/07/13, 15:00,  21.0,  91,  20.3,  19.7,  19.7,   0.0,  0.95, 
 04/07/13, 16:00,  22.2,  84,  20.5,  19.7,  19.7,   0.0,  1.90, 
 04/07/13, 17:00,  20.8,  88,  20.8,  19.8,  19.6,   0.0,  0.83, 
 04/07/13, 18:00,  20.1,  90,  20.9,  19.9,  19.5,   0.0,  0.30, 
 04/07/13, 19:00,  19.6,  92,  21.0,  19.9,  19.7,   0.0,  0.03, 
 04/07/13, 20:00,  19.4,  90,  20.8,  20.0,  19.4,   0.0,  0.00, 
 04/07/13, 21:00,  19.0,  93,  20.8,  20.1,  19.6,   0.0,  0.00, 
 04/07/13, 22:00,  19.0,  92,  20.7,  20.0,  19.5,   0.0,  0.00, 
 04/07/13, 23:00,  18.3,  97,  20.5,  20.2,  19.4,   0.0,  0.00, 
 04/07/14, 00:00,  18.5,  94,  20.4,  20.2,  19.4,   0.0,  0.00, 
 04/07/14, 01:00,  18.6,  92,  20.2,  20.1,  19.4,   0.0,  0.00, 
 04/07/14, 02:00,  18.8,  89,  20.0,  20.0,  19.4,   0.0,  0.00, 
 04/07/14, 03:00,  16.9,  99,  20.0,  20.1,  19.4,   0.0,  0.00, 
 04/07/14, 04:00,  18.9,  87,  19.8,  20.1,  19.4,   0.0,  0.00, 
 04/07/14, 05:00,  18.7,  88,  19.7,  20.0,  19.4,   0.0,  0.00, 
 04/07/14, 06:00,  17.0,  99,  19.5,  20.0,  19.6,   0.0,  0.10, 
 04/07/14, 07:00,  20.9,  85,  19.5,  19.9,  19.5,   0.0,  0.83, 
 04/07/14, 08:00,  20.9,  84,  19.7,  19.9,  19.5,   0.0,  1.55, 
 04/07/14, 09:00,  23.2,  69,  20.1,  19.8,  19.6,   0.0,  2.34, 
 04/07/14, 10:00,  23.9,  74,  20.7,  19.8,  19.5,   0.0,  2.89, 
 04/07/14, 11:00,  25.5,  79,  21.6,  19.9,  19.4,   0.0,  3.03, 
 04/07/14, 12:00,  25.3,  66,  22.5,  20.0,  19.4,   0.0,  2.94, 
 04/07/14, 13:00,  25.3,  72,  23.4,  20.1,  19.4,   0.5,  2.85, 
 04/07/14, 14:00,  21.9,  99,  23.9,  20.4,  19.5,   2.5,  1.23, 
 04/07/14, 15:00,  20.9,  94,  23.9,  20.6,  19.3,   0.5,  1.06, 
 04/07/14, 16:00,  22.4,  83,  23.8,  20.9,  19.3,   0.0,  1.85, 
 04/07/14, 17:00,  21.4,  83,  23.7,  21.1,  19.4,   0.5,  0.64, 
 04/07/14, 18:00,  21.3,  85,  23.6,  21.2,  19.3,   0.0,  0.99, 
 04/07/14, 19:00,  18.9,  99,  23.3,  21.4,  19.4,   0.0,  0.13, 
 04/07/14, 20:00,  19.2,  92,  23.1,  21.4,  19.5,   0.0,  0.00, 
 04/07/14, 21:00,  19.6,  79,  22.8,  21.5,  19.6,   0.0,  0.00, 
 04/07/14, 22:00,  18.5,  85,  22.4,  21.5,  19.5,   0.0,  0.00, 
 04/07/14, 23:00,  17.7,  92,  22.0,  21.5,  19.4,   0.0,  0.00, 
 04/07/15, 00:00,  18.3,  89,  21.8,  21.4,  19.6,   0.0,  0.00, 
 04/07/15, 01:00,  18.8,  83,  21.6,  21.4,  19.6,   0.0,  0.00, 
 04/07/15, 02:00,  18.7,  82,  21.3,  21.3,  19.6,   0.0,  0.00, 
 04/07/15, 03:00,  18.7,  83,  21.1,  21.2,  19.5,   0.0,  0.00, 
 04/07/15, 04:00,  18.4,  82,  20.8,  21.1,  19.6,   0.0,  0.00, 
 04/07/15, 05:00,  19.2,  73,  20.7,  21.1,  19.6,   0.0,  0.00, 
 04/07/15, 06:00,  18.4,  76,  20.5,  21.0,  19.6,   0.0,  0.05, 
 04/07/15, 07:00,  19.9,  68,  20.4,  20.8,  19.6,   0.0,  0.66, 
 04/07/15, 08:00,  20.9,  70,  20.4,  20.8,  19.7,   0.0,  1.37, 
 04/07/15, 09:00,  22.2,  71,  20.7,  20.7,  19.7,   0.0,  2.06, 
 04/07/15, 10:00,  22.2,  72,  21.2,  20.6,  19.7,   0.0,  2.48, 
 04/07/15, 11:00,  22.7,  76,  21.9,  20.6,  19.8,   0.0,  2.22, 
 04/07/15, 12:00,  23.9,  73,  22.5,  20.7,  19.8,   0.0,  2.55, 
 04/07/15, 13:00,  22.6,  80,  23.0,  20.8,  19.8,   0.0,  1.74, 
 04/07/15, 14:00,  23.3,  72,  23.3,  20.9,  19.7,   0.0,  2.56, 
 04/07/15, 15:00,  23.6,  76,  23.5,  21.1,  19.6,   0.0,  2.61, 
 04/07/15, 16:00,  22.3,  78,  23.6,  21.2,  19.6,   0.0,  1.41, 
 04/07/15, 17:00,  21.6,  80,  23.7,  21.3,  19.7,   0.0,  1.14, 
 04/07/15, 18:00,  21.3,  75,  23.6,  21.5,  19.7,   0.0,  0.75, 
 04/07/15, 19:00,  20.2,  81,  23.5,  21.6,  19.6,   0.0,  0.08, 
 04/07/15, 20:00,  19.6,  85,  23.2,  21.6,  19.8,   0.0,  0.00, 
 04/07/15, 21:00,  19.6,  78,  22.9,  21.7,  19.8,   0.0,  0.00, 
 04/07/15, 22:00,  18.5,  78,  22.6,  21.7,  19.6,   0.0,  0.00, 
 04/07/15, 23:00,  18.9,  75,  22.3,  21.7,  19.8,   0.0,  0.00, 
 04/07/16, 00:00,  19.6,  77,  22.0,  21.6,  19.9,   0.0,  0.00, 
 04/07/16, 01:00,  19.7,  77,  21.6,  21.6,  19.7,   0.0,  0.00, 